OneWeb SL0514

operational
NORAD ID: 54132 Int'l Des: 2022-138 Owner: ONEWEBN Country: UK Constellation: oneweb
LEOCIRCULARPOLARONEWEB_TYPE

About OneWeb SL0514

Description loading...

Live Position

Loading 3D Globe...

Upcoming Passes

Altitude History

Altitude vs Time

uPlot chart will show altitude changes over time

Two-Line Element Set

1 54132U 22138V 25260.83857719 .00000047 00000-0 85671-4 0 9996
2 54132 87.9290 359.1181 0001981 99.3577 260.7780 13.19724770140904
Epoch: Sep 17, 2025 • Age: 13 hours

Current Status

Altitude 1198.1 km
Velocity 7.26 km/s
Sub-Earth Point 85.31°N, 111.96°W
Launch Date Oct 22, 2022
Age 2.9 years
Type internet

Technical Details

Classification Payload
Mass 148.00 kg
Dry Mass 140.00 kg
Total Mass 148.00 kg
Length 1.30 m
Diameter 1.00 m
Span 5.00 m
Shape Trapezoid+2 pan
Manufacturer ONEWUS
Bus Type ARROW
Phase Status In Orbit
Owner/State ONEWEBN/UK

Large Constellations

Loading constellations...